Location: Jastrzębia Góra
(54.8312°N, 18.3037°E)
Time: 11:19:01
(UTC+01:00)

ISS - Visible Passes

Search period start: 24 January 2019 00:00
Search period end: 03 February 2019 00:00
Orbit: 404 x 410 km, 51.6° (Epoch: 24 January)

Date Brightness Start Highest point End Pass type
(mag) Time Alt. Az. Time Alt. Az. Time Alt. Az.
24 Jan -1.3 17:51:52 10° SE 17:52:03 10° SE 17:52:04 10° SE visible
25 Jan -1.8 18:33:55 10° SSW 18:35:41 20° S 18:35:41 20° S visible
26 Jan -1.8 17:43:11 10° SSW 17:45:26 17° SSE 17:46:30 15° SE visible
26 Jan -1.1 19:18:17 10° WSW 19:19:14 17° SW 19:19:14 17° SW visible
27 Jan -1.3 16:52:55 10° SSE 16:54:18 12° SE 16:55:40 10° ESE visible
27 Jan -2.7 18:27:07 10° SW 18:30:00 33° SSE 18:30:00 33° SSE visible
28 Jan -2.3 17:36:02 10° SW 17:38:52 26° SSE 17:40:43 16° ESE visible
28 Jan -1.7 19:11:49 10° WSW 19:13:26 25° WSW 19:13:26 25° WSW visible
29 Jan -3.2 18:20:31 10° WSW 18:23:40 43° S 18:24:07 40° SE visible
29 Jan -0.3 19:56:47 10° W 19:56:50 10° W 19:56:50 10° W visible
30 Jan -2.8 17:29:16 10° SW 17:32:20 37° SSE 17:34:47 14° E visible
30 Jan -2.2 19:05:23 10° W 19:07:30 32° WSW 19:07:30 32° WSW visible
31 Jan -3.2 18:14:00 10° WSW 18:17:12 48° S 18:18:09 35° SE visible
31 Jan -0.5 19:50:24 10° W 19:50:52 13° W 19:50:52 13° W visible
01 Feb -3.0 17:22:39 10° WSW 17:25:50 46° S 17:28:49 11° E visible
01 Feb -2.5 18:58:57 10° W 19:01:32 36° SW 19:01:32 36° SW visible
02 Feb -3.1 18:07:31 10° W 18:10:42 46° S 18:12:12 26° SE visible
02 Feb -0.8 19:44:07 10° W 19:44:55 15° WSW 19:44:55 15° WSW visible
